Kosmos-1013

operational
NORAD ID: 10930 Int'l Des: 1978-056 Owner: GUKOSR Country: SU
LEOCIRCULAR

关于 Kosmos-1013

正在加载描述...

实时位置

正在加载3D地球...

即将过境

高度历史

Altitude vs Time

uPlot chart will show altitude changes over time

两行轨道根数

1 10930U 78056A 26063.05556748 .00000003 00000-0 14277-3 0 9993
2 10930 74.0236 266.7550 0048394 198.7417 321.1576 12.37817651157158
Epoch: Mar 4, 2026 • Age: 21 hours

当前状态

高度 1488.9 km
速度 7.13 km/s
星下点 22.04°N, 34.27°W
发射日期 Jun 7, 1978
运行时间 47.7 years
类型 other

技术详情

分类 Payload
质量 60.00 kg
干质量 60.00 kg
总质量 60.00 kg
长度 0.80 m
直径 0.80 m
跨度 0.80 m
形状 Poly
制造商 NPOPM
平台类型 Strela-1 11F625
阶段状态 In Orbit
所有者/国家 GUKOSR/SU

大型星座

Loading constellations...